| time (UTC) | temp F | wind direction | speed knots | gust knots | rain 1hr in | rain 24hr in | rain mn in | humidity % | barometer mb |
| 20260504201557 | 61 | 61 | 4.3 | 11.3 | 0.00 | 0.00 | 0.00 | 67 | 1008.8 |
| 20260504200059 | 61 | 300 | 4.3 | 13.9 | 0.00 | 0.00 | 0.00 | 69 | 1009.0 |
| 20260504194600 | 62 | 330 | 5.2 | 11.3 | 0.00 | 0.00 | 0.00 | 67 | 1009.2 |
| 20260504193114 | 62 | 246 | 3.5 | 10.4 | 0.00 | 0.00 | 0.00 | 67 | 1009.4 |
| 20260504191559 | 63 | 328 | 4.3 | 12.2 | 0.00 | 0.00 | 0.00 | 64 | 1009.4 |
| 20260504190109 | 66 | 330 | 2.6 | 6.1 | 0.00 | 0.00 | 0.00 | 60 | 1009.5 |
| 20260504184600 | 63 | 271 | 4.3 | 13.0 | 0.00 | 0.00 | 0.00 | 62 | 1009.5 |
| 20260504183102 | 63 | 297 | 5.2 | 11.3 | 0.00 | 0.00 | 0.00 | 63 | 1009.7 |
| 20260504181602 | 64 | 17 | 3.5 | 11.3 | 0.00 | 0.00 | 0.00 | 60 | 1009.7 |
| 20260504180141 | 63 | 329 | 6.1 | 13.0 | 0.00 | 0.00 | 0.00 | 61 | 1010.0 |
| 20260504174558 | 62 | 27 | 5.2 | 12.2 | 0.00 | 0.00 | 0.00 | 63 | 1010.2 |
| 20260504173058 | 63 | 322 | 5.2 | 10.4 | 0.00 | 0.00 | 0.00 | 62 | 1010.2 |
| 20260504171601 | 63 | 295 | 5.2 | 9.6 | 0.00 | 0.00 | 0.00 | 63 | 1010.4 |
| 20260504160105 | 65 | 275 | 1.7 | 7.8 | 0.00 | 0.00 | 0.00 | 54 | 1011.1 |
| 20260504140103 | 62 | 131 | 2.6 | 10.4 | 0.00 | 0.00 | 0.00 | 53 | 1011.6 |
| 20260504120109 | 55 | 106 | 1.7 | 6.1 | 0.00 | 0.00 | 0.00 | 61 | 1012.3 |
| 20260504100116 | 48 | 0 | 0.0 | 0.9 | 0.00 | 0.00 | 0.00 | 66 | 1012.1 |
| 20260504081601 | 49 | 142 | 0.0 | 3.5 | 0.00 | 0.00 | 0.00 | 64 | 1011.4 |
| 20260504060109 | 51 | 136 | 1.7 | 6.1 | 0.00 | 0.00 | 0.00 | 60 | 1010.9 |
| 20260504050113 | 51 | 125 | 0.9 | 3.5 | 0.00 | 0.00 | 0.00 | 62 | 1010.7 |
| 20260504044559 | 51 | 0 | 0.0 | 3.5 | 0.00 | 0.00 | 0.00 | 61 | 1010.6 |
| 20260504043105 | 51 | 150 | 0.0 | 3.5 | 0.00 | 0.00 | 0.00 | 60 | 1010.5 |
| 20260504041559 | 50 | 0 | 0.0 | 3.5 | 0.00 | 0.00 | 0.00 | 60 | 1010.6 |
| 20260504040104 | 49 | 0 | 0.9 | 3.5 | 0.00 | 0.00 | 0.00 | 63 | 1010.5 |
| 20260504034615 | 47 | 0 | 0.0 | 0.0 | 0.00 | 0.00 | 0.00 | 68 | 1010.4 |
| 20260504033104 | 47 | 0 | 0.0 | 0.0 | 0.00 | 0.00 | 0.00 | 66 | 1010.4 |
| 20260504031604 | 47 | 0 | 0.0 | 0.9 | 0.00 | 0.00 | 0.00 | 66 | 1010.3 |
| 20260504030058 | 47 | 0 | 0.0 | 0.0 | 0.00 | 0.00 | 0.00 | 64 | 1010.3 |
| 20260504024600 | 46 | 0 | 0.0 | 0.0 | 0.00 | 0.00 | 0.00 | 62 | 1010.2 |
| 20260504023059 | 45 | 0 | 0.0 | 0.0 | 0.00 | 0.00 | 0.00 | 62 | 1010.3 |
| 20260504021600 | 46 | 0 | 0.0 | 0.0 | 0.00 | 0.00 | 0.00 | 59 | 1010.3 |
| 20260504020109 | 47 | 0 | 0.0 | 0.0 | 0.00 | 0.00 | 0.00 | 55 | 1010.3 |
| 20260504014606 | 49 | 0 | 0.0 | 0.0 | 0.00 | 0.00 | 0.00 | 54 | 1010.2 |
| 20260504013107 | 49 | 0 | 0.0 | 0.9 | 0.00 | 0.00 | 0.00 | 52 | 1010.0 |
| 20260504011556 | 50 | 0 | 0.0 | 0.0 | 0.00 | 0.00 | 0.00 | 51 | 1009.9 |
| 20260504004612 | 54 | 0 | 0.0 | 0.9 | 0.00 | 0.00 | 0.00 | 42 | 1009.5 |
| 20260504003059 | 55 | 0 | 0.0 | 0.9 | 0.00 | 0.00 | 0.00 | 37 | 1009.3 |
| 20260504001602 | 56 | 0 | 0.9 | 3.5 | 0.00 | 0.00 | 0.00 | 34 | 1009.1 |
| 20260503234558 | 58 | 149 | 2.6 | 9.6 | 0.00 | 0.00 | 0.00 | 32 | 1008.6 |
| 20260503233100 | 58 | 129 | 3.5 | 9.6 | 0.00 | 0.00 | 0.00 | 31 | 1008.6 |
| 20260503231604 | 58 | 147 | 1.7 | 8.7 | 0.00 | 0.00 | 0.00 | 31 | 1008.4 |
| 20260503230113 | 59 | 111 | 3.5 | 9.6 | 0.00 | 0.00 | 0.00 | 30 | 1008.4 |
| 20260503224604 | 59 | 119 | 5.2 | 13.9 | 0.00 | 0.00 | 0.00 | 29 | 1008.3 |
| 20260503223056 | 60 | 137 | 4.3 | 10.4 | 0.00 | 0.00 | 0.00 | 30 | 1008.1 |
| 20260503221601 | 60 | 127 | 5.2 | 12.2 | 0.00 | 0.00 | 0.00 | 30 | 1008.1 |
| 20260503220058 | 59 | 165 | 5.2 | 13.0 | 0.00 | 0.00 | 0.00 | 30 | 1008.0 |
| 20260503214558 | 59 | 136 | 5.2 | 12.2 | 0.00 | 0.00 | 0.00 | 31 | 1008.0 |
| 20260503213103 | 59 | 143 | 6.1 | 13.9 | 0.00 | 0.00 | 0.00 | 31 | 1007.8 |
| 20260503211614 | 59 | 169 | 6.1 | 13.0 | 0.00 | 0.00 | 0.00 | 31 | 1007.8 |
| 20260503210101 | 58 | 152 | 7.8 | 18.2 | 0.00 | 0.00 | 0.00 | 32 | 1007.9 |
| 20260503204600 | 58 | 127 | 7.8 | 16.5 | 0.00 | 0.00 | 0.00 | 33 | 1007.9 |
| 20260503203106 | 58 | 131 | 4.3 | 16.5 | 0.00 | 0.00 | 0.00 | 35 | 1007.7 |